DW2921 Weather Reports


Display with metric or nautical units.
time (UTC)temp
F
wind
direction
speed
MPH
gust
MPH
rain 1hr
in
rain 24hr
in
rain mn
in
humidity
%
barometer
mb
20260902215102 97 49 0.0 0.0 0.00 0.00 0.00 50 1013.0
20260902213102 98 61 0.0 0.0 0.00 0.00 0.00 50 1013.0
20260902211102 98 59 0.0 0.0 0.00 0.00 0.00 50 1013.0
20260902205102 99 82 0.0 0.0 0.00 0.00 0.00 50 1013.0
20260902204102 99 92 0.0 0.0 0.00 0.00 0.00 50 1013.0
20260902203102 98 99 0.0 0.0 0.00 0.00 0.00 50 1013.0
20260902202102 99 45 0.0 0.0 0.00 0.00 0.00 50 1013.0
20260902201102 98 53 0.0 0.0 0.00 0.00 0.00 50 1013.0
20260902195102 95 355 0.0 0.0 0.00 0.00 0.00 50 1013.0
20260902194102 96 114 0.0 0.0 0.00 0.00 0.00 50 1013.0
20260902193102 98 117 0.0 0.0 0.00 0.00 0.00 50 1013.0
20260902192103 97 69 0.0 0.0 0.00 0.00 0.00 50 1013.0
20260902191102 94 342 0.0 0.0 0.00 0.00 0.00 50 1013.0
20260902183102 99 12 0.0 0.0 0.00 0.00 0.00 50 1013.0
20260902182103 98 72 0.0 0.0 0.00 0.00 0.00 50 1013.0
20260902181102 97 45 0.0 0.0 0.00 0.00 0.00 50 1013.0
20260902175102 96 73 0.0 0.0 0.00 0.00 0.00 50 1013.0
20260902174103 96 11 0.0 0.0 0.00 0.00 0.00 50 1013.0
20260902173102 96 68 0.0 0.0 0.00 0.00 0.00 50 1013.0
20260902172102 95 99 0.0 0.0 0.00 0.00 0.00 50 1013.0
20260902171103 94 92 0.0 0.0 0.00 0.00 0.00 50 1013.0
20260902165102 92 250 0.0 0.0 0.00 0.00 0.00 50 1013.0
20260902164102 92 224 0.0 0.0 0.00 0.00 0.00 50 1013.0
20260902163102 91 93 0.0 0.0 0.00 0.00 0.00 50 1013.0
20260902162102 90 87 0.0 0.0 0.00 0.00 0.00 50 1013.0
20260902160103 89 21 0.0 0.0 0.00 0.00 0.00 50 1013.0
20260902155102 88 28 0.0 0.0 0.00 0.00 0.00 50 1013.0
20260902154103 87 15 0.0 0.0 0.00 0.00 0.00 50 1013.0
20260902153102 87 344 0.0 0.0 0.00 0.00 0.00 50 1013.0
20260902152102 86 34 0.0 0.0 0.00 0.00 0.00 50 1013.0
20260902151102 85 33 0.0 0.0 0.00 0.00 0.00 50 1013.0
20260902150103 84 33 0.0 0.0 0.00 0.00 0.00 50 1013.0
20260902145103 84 32 0.0 0.0 0.00 0.00 0.00 50 1013.0
20260902144103 83 32 0.0 0.0 0.00 0.00 0.00 50 1013.0
20260902143103 82 32 0.0 0.0 0.00 0.00 0.00 50 1013.0
20260902142102 81 69 0.0 0.0 0.00 0.00 0.00 50 1013.0
20260902141103 81 67 0.0 0.0 0.00 0.00 0.00 50 1013.0
20260902140103 80 67 0.0 0.0 0.00 0.00 0.00 50 1013.0
20260902135102 79 67 0.0 0.0 0.00 0.00 0.00 50 1013.0
20260902134102 79 67 0.0 0.0 0.00 0.00 0.00 50 1013.0
20260902133103 78 67 0.0 0.0 0.00 0.00 0.00 50 1013.0
20260902132103 77 55 0.0 0.0 0.00 0.00 0.00 50 1013.0
20260902131103 77 55 0.0 0.0 0.00 0.00 0.00 50 1013.0
20260902130103 76 55 0.0 0.0 0.00 0.00 0.00 50 1013.0
20260902124102 75 55 0.0 0.0 0.00 0.00 0.00 50 1013.0
20260902123103 74 55 0.0 0.0 0.00 0.00 0.00 50 1013.0
20260902122103 74 55 0.0 0.0 0.00 0.00 0.00 50 1013.0
20260902121103 74 55 0.0 0.0 0.00 0.00 0.00 50 1013.0
20260902115103 73 55 0.0 0.0 0.00 0.00 0.00 50 1013.0
20260902114102 73 55 0.0 0.0 0.00 0.00 0.00 50 1013.0
20260902113103 73 55 0.0 0.0 0.00 0.00 0.00 50 1013.0
20260902112102 73 55 0.0 0.0 0.00 0.00 0.00 50 1013.0
20260902111102 73 55 0.0 0.0 0.00 0.00 0.00 50 1013.0
20260902110103 73 55 0.0 0.0 0.00 0.00 0.00 50 1013.0
20260902104103 74 55 0.0 0.0 0.00 0.00 0.00 50 1013.0
20260902103102 74 55 0.0 0.0 0.00 0.00 0.00 50 1013.0
20260902102103 74 55 0.0 0.0 0.00 0.00 0.00 50 1013.0
20260902101102 74 55 0.0 0.0 0.00 0.00 0.00 50 1013.0
20260902095103 74 55 0.0 0.0 0.00 0.00 0.00 50 1013.0
20260902094103 74 55 0.0 0.0 0.00 0.00 0.00 50 1013.0
20260902092102 75 55 0.0 0.0 0.00 0.00 0.00 50 1013.0
20260902090104 75 55 0.0 0.0 0.00 0.00 0.00 50 1013.0
20260902085103 75 55 0.0 0.0 0.00 0.00 0.00 50 1013.0
20260902084103 76 55 0.0 0.0 0.00 0.00 0.00 50 1013.0
20260902082103 76 55 0.0 0.0 0.00 0.00 0.00 50 1013.0
20260902081103 76 55 0.0 0.0 0.00 0.00 0.00 50 1013.0
20260902080103 76 55 0.0 0.0 0.00 0.00 0.00 50 1013.0
20260902075102 76 55 0.0 0.0 0.00 0.00 0.00 50 1013.0
20260902074103 77 55 0.0 0.0 0.00 0.00 0.00 50 1013.0
20260902073103 77 55 0.0 0.0 0.00 0.00 0.00 50 1013.0
20260902072103 77 55 0.0 0.0 0.00 0.00 0.00 50 1013.0
20260902071103 77 55 0.0 0.0 0.00 0.00 0.00 50 1013.0
20260902065103 78 55 0.0 0.0 0.00 0.00 0.00 50 1013.0
20260902063103 78 55 0.0 0.0 0.00 0.00 0.00 50 1013.0
20260902062103 78 55 0.0 0.0 0.00 0.00 0.00 50 1013.0
20260902061102 78 55 0.0 0.0 0.00 0.00 0.00 50 1013.0
20260902055103 79 55 0.0 0.0 0.00 0.00 0.00 50 1013.0
20260902054103 79 55 0.0 0.0 0.00 0.00 0.00 50 1013.0
20260902053103 79 55 0.0 0.0 0.00 0.00 0.00 50 1013.0
20260902050104 80 55 0.0 0.0 0.00 0.00 0.00 50 1013.0
20260902045103 80 55 0.0 0.0 0.00 0.00 0.00 50 1013.0
20260902044103 80 55 0.0 0.0 0.00 0.00 0.00 50 1013.0
20260902043103 80 55 0.0 0.0 0.00 0.00 0.00 50 1013.0
20260902042103 81 55 0.0 0.0 0.00 0.00 0.00 50 1013.0
20260902041103 81 55 0.0 0.0 0.00 0.00 0.00 50 1013.0
20260902040104 81 55 0.0 0.0 0.00 0.00 0.00 50 1013.0
20260902035103 82 55 0.0 0.0 0.00 0.00 0.00 50 1013.0
20260902034103 82 55 0.0 0.0 0.00 0.00 0.00 50 1013.0
20260902033103 82 55 0.0 0.0 0.00 0.00 0.00 50 1013.0
20260902031103 83 55 0.0 0.0 0.00 0.00 0.00 50 1013.0
20260902025102 83 55 0.0 0.0 0.00 0.00 0.00 50 1013.0
20260902024103 84 55 0.0 0.0 0.00 0.00 0.00 50 1013.0
20260902023103 84 55 0.0 0.0 0.00 0.00 0.00 50 1013.0
20260902022103 84 55 0.0 0.0 0.00 0.00 0.00 50 1013.0
20260902020104 85 55 0.0 0.0 0.00 0.00 0.00 50 1013.0
20260902015103 85 55 0.0 0.0 0.00 0.00 0.00 50 1013.0
20260902013102 86 55 0.0 0.0 0.00 0.00 0.00 50 1013.0
20260902012103 86 55 0.0 0.0 0.00 0.00 0.00 50 1013.0
20260902010104 87 55 0.0 0.0 0.00 0.00 0.00 50 1013.0
20260902005103 87 55 0.0 0.0 0.00 0.00 0.00 50 1013.0
20260902004103 87 55 0.0 0.0 0.00 0.00 0.00 50 1013.0
20260902003103 88 55 0.0 0.0 0.00 0.00 0.00 50 1013.0
20260902002103 89 55 0.0 0.0 0.00 0.00 0.00 50 1013.0
20260902001103 89 55 0.0 0.0 0.00 0.00 0.00 50 1013.0
20260901235103 90 55 0.0 0.0 0.00 0.00 0.00 50 1013.0
20260901234103 91 55 0.0 0.0 0.00 0.00 0.00 50 1013.0
20260901233102 91 55 0.0 0.0 0.00 0.00 0.00 50 1013.0
20260901232103 92 55 0.0 0.0 0.00 0.00 0.00 50 1013.0
20260901231103 92 55 0.0 0.0 0.00 0.00 0.00 50 1013.0
20260901225103 93 55 0.0 0.0 0.00 0.00 0.00 50 1013.0
20260901224103 94 55 0.0 0.0 0.00 0.00 0.00 50 1013.0
20260901223103 94 55 0.0 0.0 0.00 0.00 0.00 50 1013.0
20260901222103 94 55 0.0 0.0 0.00 0.00 0.00 50 1013.0
20260901221103 95 55 0.0 0.0 0.00 0.00 0.00 50 1013.0